Вернуться в каталог

COSMOS 2535 DEB

LostPO
NORAD 45001·DEBRIS·🇷🇺 Russia

Запущен Jul 10, 2019 с Plesetsk Cosmodrome

Loading…

Ближайшие Пролёты (ближайшие 24 часа)

TLE

УстаревшееSource: Space-Track

Эпоха: Jan 14, 2020, 09:02 UTC

1 45001U 19039S   20014.37681808 -.00287314  00000-0 -75713-1 0  9991
2 45001  97.0479  68.2233 0259038 316.8076  41.3049 14.32392761   481

Отслеживайте COSMOS 2535 DEB в реальном времени с AllMySat

Download on the App Store